This is the latest recevied weather packets stored in our database for station/object HB9FHL-13. If no packets are shown the sender has not sent any weather packets the latest 10 day(s).
| Time | Temp. | Humidity | Pressure | Rain* | Wind** | Luminosity | Snow |
|---|---|---|---|---|---|---|---|
| 1778089240 | 10.56° C | - | 1012.2 hPa | 9.65 mm | - | - | - |
| 1778088939 | 10.56° C | - | 1008.9 hPa | 9.65 mm | - | - | - |
| 1778088639 | 10° C | - | 1011.5 hPa | 9.65 mm | - | - | - |
| 1778088338 | 10.56° C | - | 1006.1 hPa | 9.65 mm | - | - | - |
| 1778088038 | 10.56° C | - | 1003.8 hPa | 9.65 mm | - | - | - |
| 1778087737 | 10.56° C | - | 1001 hPa | 9.65 mm | - | - | - |
| 1778087437 | 11.11° C | - | 1015.9 hPa | 9.65 mm | - | - | - |
| 1778087136 | 10.56° C | - | 1007.8 hPa | 9.65 mm | - | - | - |
| 1778086836 | 11.67° C | - | 1002.9 hPa | 9.65 mm | - | - | - |
| 1778086535 | 10° C | - | 1006.9 hPa | 9.65 mm | - | - | - |
| 1778086234 | 10° C | - | 1010.9 hPa | 9.65 mm | - | - | - |
| 1778085933 | 11.11° C | - | 1013.7 hPa | 9.4 mm | - | - | - |
| 1778085633 | 11.67° C | - | 1006.8 hPa | 9.4 mm | - | - | - |
| 1778085332 | 10° C | - | 1001.9 hPa | 9.4 mm | - | - | - |
| 1778085032 | 10° C | - | 1020.1 hPa | 9.4 mm | - | - | - |
| 1778084731 | 10° C | - | 1006.5 hPa | 9.4 mm | - | - | - |
| 1778084119 | 9.44° C | - | 1011.3 hPa | 9.4 mm | - | - | - |
| 1778083818 | 9.44° C | - | 1002.7 hPa | 9.4 mm | - | - | - |
| 1778083517 | 11.11° C | - | 1013.3 hPa | 9.4 mm | - | - | - |
| 1778083217 | 10° C | - | 1009 hPa | 9.4 mm | - | - | - |
| 1778082916 | 10° C | - | 1008.5 hPa | 9.4 mm | - | - | - |
| 1778082616 | 10.56° C | - | 1002.5 hPa | 9.4 mm | - | - | - |
| 1778082319 | 11.11° C | - | 1014.6 hPa | 9.4 mm | - | - | - |
| 1778082015 | 9.44° C | - | 1009.5 hPa | 9.4 mm | - | - | - |
| 1778081714 | 10° C | - | 1010.1 hPa | 9.4 mm | - | - | - |
* Rain since midnight (hover to see other rain measurements)
** Current wind speed in m/s (hover to see current wind gust speed)